Regional Weather Roundup
Issued by NWS

Home | Current Version | Previous Version | Text Only | Print | Product List | Glossary On
Versions: 1 2 3 4 5 6 7 8 9 10 11 12 13 14 15 16 17 18 19 20 21 22 23 24 25 26 27
000
ASUS45 KREV 010810
RWRNV
NEVADA REGIONAL WEATHER ROUNDUP
NATIONAL WEATHER SERVICE RENO NV
100 AM PDT SUN MAY 01 2016

NOTE: "FAIR" INDICATES FEW OR NO CLOUDS BELOW 12,000 FEET WITH NO
SIGNIFICANT WEATHER AND/OR OBSTRUCTIONS TO VISIBILITY.

NVZ001-003-004-010900-
WESTERN NEVADA

CITY           SKY/WX    TMP DP  RH WIND       PRES   REMARKS
RENO           PTCLDY    44  32  62 CALM      30.06F
CARSON CITY    FAIR      39  32  75 CALM      30.07F
MINDEN         FAIR      32  32 100 E6        30.07F
SLIDE MTN        N/A     30  27  86 E44         N/A
PYRAMID LAKE     N/A     52 N/A N/A W3          N/A
FALLON         CLEAR     41  28  60 N6        30.04S
LOVELOCK       CLEAR     46  31  55 NE8       30.05S
HAWTHORNE      CLOUDY    50  37  62 NW3       30.05S
$$

NVZ002-CAZ072-073-010900-
NORTHERN AND CENTRAL SIERRA

CITY           SKY/WX    TMP DP  RH WIND       PRES   REMARKS
S. LAKE TAHOE  CLEAR     39  28  64 SE8       30.06F
TRUCKEE        CLOUDY    32  30  93 CALM      30.08F
SQUAW VLY 8000   N/A     36  27  69 E10         N/A
SUSANVILLE     CLOUDY    48  34  57 E8        30.07S
BLUE CANYON    CLEAR     50  25  37 E16G35    29.98S
MAMMOTH LAKES  FAIR      38  30  73 SW5       30.09F
BRIDGEPORT     CLOUDY    38  32  79 W3        30.07F
$$

NVZ030-031-036-010900-
NORTHERN NEVADA

CITY           SKY/WX    TMP DP  RH WIND       PRES   REMARKS
ELKO           PTCLDY    44  35  70 VRB3      30.06F
WINNEMUCCA     MOCLDY    46  36  68 NE9       30.08S
WENDOVER       CLOUDY    48  37  66 N21       30.06S
$$

NVZ035-037-010900-
CENTRAL NEVADA

CITY           SKY/WX    TMP DP  RH WIND       PRES   REMARKS
ELY            LGT RAIN  38  35  89 NE13      30.04S
EUREKA           N/A     38  32  79 CALM      30.06S
$$

NVZ013-014-010900-
SOUTH CENTRAL NEVADA

CITY           SKY/WX    TMP DP  RH WIND       PRES   REMARKS
TONOPAH        CLOUDY    47  33  58 N9        30.02S
$$

NVZ017-020-022-010900-
SOUTHERN NEVADA

CITY           SKY/WX    TMP DP  RH WIND       PRES   REMARKS
LAS VEGAS      MOCLDY    57  49  74 S6        29.80R
N. LAS VEGAS   PTCLDY    59  44  57 N10       29.82S
NELLIS AFB     PTCLDY    56  50  81 N2        29.82F
HENDERSON      MOCLDY    54  49  83 E5        29.86R
MERCURY        PTCLDY    53  43  68 NE10      29.88S
$$




USA.gov is the U.S. government's official web portal to all federal, state and local government web resources and services.